LA6JKA Weather Reports


time (UTC)temp
C
wind
direction
speed
KPH
gust
KPH
rain 1hr
cm
rain 24hr
cm
rain mn
cm
humidity
%
barometer
mb
20260505230025 0 95 0.0 1.6 0.00 0.00 0.00 84 1011.9
20260505224529 0 94 1.6 4.8 0.00 0.00 0.00 79 1012.0
20260505223019 0 315 0.0 0.0 0.00 0.00 0.00 79 1012.0
20260505221517 1 315 0.0 0.0 0.00 0.00 0.00 81 1012.0
20260505220013 1 315 0.0 1.6 0.00 0.00 0.00 79 1012.1
20260505214514 2 315 1.6 3.2 0.00 0.00 0.00 81 1011.9
20260505213016 2 315 1.6 4.8 0.00 0.00 0.00 80 1011.8
20260505211530 2 313 0.0 3.2 0.00 0.00 0.00 78 1011.8
20260505210012 3 313 0.0 1.6 0.00 0.00 0.00 77 1011.8
20260505204508 3 301 0.0 3.2 0.00 0.00 0.00 75 1011.6
20260505203005 4 202 0.0 1.6 0.00 0.00 0.00 72 1011.3
20260505201507 5 190 0.0 0.0 0.00 0.00 0.00 71 1011.2
20260505200003 5 190 0.0 3.2 0.00 0.00 0.00 70 1011.2
20260505194504 5 136 0.0 3.2 0.00 0.00 0.00 68 1011.1
20260505193000 6 140 1.6 3.2 0.00 0.00 0.00 66 1011.0
20260505191602 6 202 0.0 1.6 0.00 0.00 0.00 63 1010.8
20260505190058 7 198 0.0 8.0 0.00 0.00 0.00 61 1010.6
20260505184559 7 230 4.8 11.3 0.00 0.00 0.00 60 1010.5
20260505183057 7 189 8.0 16.1 0.00 0.00 0.00 58 1010.4
20260505181556 8 204 6.4 17.7 0.00 0.00 0.00 55 1010.3
20260505180100 9 170 8.0 16.1 0.00 0.00 0.00 53 1010.2
20260505174555 10 203 8.0 19.3 0.00 0.00 0.00 52 1010.3
20260505173054 10 209 11.3 17.7 0.00 0.00 0.00 50 1010.3
20260505171556 10 227 8.0 19.3 0.00 0.00 0.00 50 1010.3
20260505170053 10 168 8.0 17.7 0.00 0.00 0.00 51 1010.2
20260505164551 10 174 11.3 22.5 0.00 0.00 0.00 47 1010.1
20260505163051 9 230 9.7 19.3 0.00 0.00 0.00 48 1010.1
20260505161550 8 248 12.9 29.0 0.00 0.00 0.00 46 1010.1
20260505153052 10 217 16.1 24.1 0.00 0.00 0.00 43 1009.9
20260505151549 10 184 19.3 30.6 0.00 0.00 0.00 39 1009.6
20260505124535 11 325 4.8 20.9 0.00 0.00 0.00 28 1009.8
20260505123033 10 289 3.2 16.1 0.00 0.00 0.00 30 1009.9
20260505121537 10 304 8.0 20.9 0.00 0.00 0.00 28 1009.9
20260505120029 10 234 3.2 17.7 0.00 0.00 0.00 32 1009.8
20260505114525 10 186 9.7 25.7 0.00 0.00 0.00 35 1010.0
20260505113037 10 340 11.3 24.1 0.00 0.00 0.00 32 1010.0
20260505111538 9 309 9.7 20.9 0.00 0.00 0.00 30 1010.1
20260505101523 8 304 9.7 19.3 0.00 0.00 0.00 37 1010.1
20260505100012 7 298 6.4 19.3 0.00 0.00 0.00 36 1010.2
20260505094509 7 290 1.6 20.9 0.00 0.00 0.00 42 1010.2
20260505093008 7 256 3.2 17.7 0.00 0.00 0.00 39 1010.1
20260505091505 7 294 3.2 17.7 0.00 0.00 0.00 39 1010.2
20260505090005 6 318 3.2 12.9 0.00 0.00 0.00 41 1010.2
20260505084505 6 293 9.7 17.7 0.00 0.00 0.00 40 1010.2
20260505083108 6 268 9.7 16.1 0.00 0.00 0.00 44 1010.1
20260505081559 6 300 4.8 17.7 0.00 0.00 0.00 45 1010.0
20260505080056 6 332 4.8 14.5 0.00 0.00 0.00 46 1009.9
20260505074555 5 323 1.6 14.5 0.00 0.00 0.00 46 1009.8
20260505073056 5 337 4.8 14.5 0.00 0.00 0.00 46 1009.7
20260505071554 5 34 4.8 19.3 0.00 0.00 0.00 48 1009.6
20260505064555 4 336 4.8 14.5 0.00 0.00 0.00 51 1009.7
20260505063049 3 344 8.0 14.5 0.00 0.00 0.00 52 1009.6
20260505061611 3 273 4.8 16.1 0.00 0.00 0.00 54 1009.7
20260505060053 3 281 6.4 12.9 0.00 0.00 0.00 56 1009.5
20260505054549 2 339 4.8 8.0 0.00 0.00 0.00 59 1009.5
20260505053045 2 265 4.8 9.7 0.00 0.00 0.00 60 1009.4
20260505051544 2 251 1.6 6.4 0.00 0.00 0.00 61 1009.3
20260505041538 0 205 0.0 6.4 0.00 0.00 0.00 69 1008.8
20260505040051 0 228 3.2 4.8 0.00 0.00 0.00 72 1008.6
20260505034541 0 175 1.6 4.8 0.00 0.00 0.00 73 1008.5
20260505033032 0 97 0.0 3.2 0.00 0.00 0.00 70 1008.5
20260505031528 0 79 3.2 6.4 0.00 0.00 0.00 68 1008.5
20260505030027 0 322 0.0 6.4 0.00 0.00 0.00 67 1008.3
20260505024523 1 238 0.0 6.4 0.00 0.00 0.00 67 1008.1
20260505023021 1 325 1.6 6.4 0.00 0.00 0.00 66 1008.1
20260505021520 1 270 1.6 6.4 0.00 0.00 0.00 66 1008.1
20260505020020 1 238 3.2 9.7 0.00 0.00 0.00 66 1007.9
20260505014515 2 248 1.6 6.4 0.00 0.00 0.00 63 1007.7
20260505013011 2 287 3.2 12.9 0.00 0.00 0.00 61 1007.6
20260505011509 2 292 3.2 12.9 0.00 0.00 0.00 61 1007.6
20260505010006 2 277 1.6 6.4 0.00 0.00 0.00 61 1007.3
20260505004506 3 261 1.6 8.0 0.00 0.00 0.00 62 1007.3
20260505003100 3 226 1.6 19.3 0.00 0.00 0.00 60 1007.3
20260505001557 3 268 6.4 17.7 0.00 0.00 0.00 59 1006.8
20260505000106 3 272 12.9 24.1 0.00 0.00 0.00 59 1006.4
20260504234604 3 272 8.0 19.3 0.00 0.00 0.00 58 1006.6
20260504233050 4 249 4.8 16.1 0.00 0.00 0.00 57 1006.7
20260504231550 4 265 1.6 12.9 0.00 0.00 0.00 58 1006.8